TimePDT,TemperatureF,Dew PointF,Humidity,Sea Level PressureIn,VisibilityMPH,Wind Direction,Wind SpeedMPH,Gust SpeedMPH,PrecipitationIn,Events,Conditions,WindDirDegrees,DateUTC
12:56 AM,81.0,41.0,24,29.52,10.0,SW,8.1,-,N/A,,Clear,230,2013-09-22 07:56:00
1:56 AM,79.0,41.0,26,29.51,10.0,WSW,8.1,-,N/A,,Clear,240,2013-09-22 08:56:00
2:56 AM,75.9,44.1,32,29.52,10.0,West,9.2,-,N/A,,Clear,270,2013-09-22 09:56:00
3:56 AM,75.0,41.0,29,29.54,10.0,West,11.5,-,N/A,,Clear,280,2013-09-22 10:56:00
4:56 AM,73.9,39.9,29,29.57,10.0,Variable,3.5,-,N/A,,Clear,0,2013-09-22 11:56:00
5:56 AM,71.1,39.9,32,29.58,10.0,South,6.9,-,N/A,,Clear,170,2013-09-22 12:56:00
6:56 AM,73.0,37.0,27,29.61,10.0,Variable,6.9,-,N/A,,Clear,0,2013-09-22 13:56:00
7:56 AM,73.0,35.1,25,29.65,10.0,NW,16.1,21.9,N/A,,Clear,320,2013-09-22 14:56:00
8:56 AM,75.0,36.0,24,29.64,10.0,West,13.8,25.3,N/A,,Clear,280,2013-09-22 15:56:00
9:56 AM,79.0,34.0,20,29.66,10.0,NNW,10.4,16.1,N/A,,Clear,330,2013-09-22 16:56:00
10:56 AM,81.0,36.0,20,29.65,10.0,North,6.9,-,N/A,,Clear,360,2013-09-22 17:56:00
11:56 AM,82.0,36.0,19,29.65,10.0,NE,6.9,-,N/A,,Clear,50,2013-09-22 18:56:00
12:56 PM,84.9,35.1,17,29.62,10.0,North,11.5,16.1,N/A,,Clear,10,2013-09-22 19:56:00
1:56 PM,86.0,33.1,15,29.62,10.0,NNW,10.4,-,N/A,,Clear,330,2013-09-22 20:56:00
2:56 PM,87.1,30.0,13,29.61,10.0,Variable,4.6,-,N/A,,Clear,0,2013-09-22 21:56:00
3:56 PM,89.1,30.0,12,29.61,10.0,NNE,5.8,-,N/A,,Clear,30,2013-09-22 22:56:00
4:56 PM,88.0,28.0,12,29.61,10.0,North,9.2,-,N/A,,Clear,360,2013-09-22 23:56:00
5:56 PM,86.0,28.9,13,29.62,10.0,NE,8.1,-,N/A,,Clear,50,2013-09-23 00:56:00
6:56 PM,82.9,32.0,16,29.64,10.0,Calm,Calm,-,N/A,,Clear,0,2013-09-23 01:56:00
7:56 PM,80.1,30.9,17,29.67,10.0,WSW,6.9,-,N/A,,Clear,240,2013-09-23 02:56:00
8:56 PM,79.0,32.0,18,29.69,10.0,Calm,Calm,-,N/A,,Clear,0,2013-09-23 03:56:00
9:56 PM,79.0,32.0,18,29.70,10.0,Calm,Calm,-,N/A,,Clear,0,2013-09-23 04:56:00
10:56 PM,79.0,32.0,18,29.71,10.0,Calm,Calm,-,N/A,,Clear,0,2013-09-23 05:56:00
11:56 PM,75.9,33.1,21,29.71,10.0,Calm,Calm,-,N/A,,Clear,0,2013-09-23 06:56:00